sat.trackr.live / text

‹ back to catalog

STARLINK-32265

NORAD 60415 · 2024-141T

PAYLOAD ACTIVE UNKNOWN

§ Identity

Operator
Country
US
Launch date
2024-08-10
Launch site
AFETR
Launch vehicle
Mass (kg)
RCS (m²)

Purposes: comms

External: N2YO · Heavens-Above · Gunter

§ Orbital elements

Epoch: 2026-09-21T17:09:09.520992Z

Period
93.85 min
Inclination
53.1602°
Eccentricity
0.0001108
Mean motion
15.34386353 rev/d
Perigee alt
462.0 km
Apogee alt
463.5 km
Semi-major
6,840.9 km
B*
-1.4548e-5
RAAN
47.7666°
Arg perigee
88.0084°
Mean anomaly
272.1046°
Rev number
11,965

§ Raw data

STARLINK-322651 60415U 24141T   26264.71469353 -.00000867  00000+0 -14548-4 0  99942 60415  53.1602  47.7666 0001108  88.0084 272.1046 15.34386353119654

JSON: /api/v1/satellites/60415 · /tle

For live sub-satellite position, see the globe view (requires WebGL).

§ Visibility from observer

Set your observer location to see the next 7 days of passes ≥ 10°. The values pass through the URL so the page stays shareable.

No JS? Fill the form by hand. The geolocation button needs JavaScript.